Simultaneous Nadir Overpasses (SNOs) Predictions

Prediction of SNOs between METOP-B and NOAA-19 Satellite Orbit:

Table of predicted SNOs for the next 14.0 days since TLE Epoch: 4/6/2024
Index Date (METOP-B) Time (METOP-B) Lat,Lon (METOP-B) SZA (METOP-B ) Date (NOAA-19) Time (NOAA-19) Lat,Lon (NOAA-19) SZA (NOAA-19 ) Distance(km) Time Diff (sec)
1 04/09/2024 19:28:36 -78.71, 78.04 109.17 04/09/2024 19:27:27 -78.72, 78.11 109.16 1.96 69
2 04/09/2024 20:19:14 78.80,-114.06 70.94 04/09/2024 20:18:26 78.80,-114.11 70.92 1.22 48
3 04/09/2024 21:09:54 -78.85, 53.54 109.03 04/09/2024 21:09:22 -78.83, 53.42 109.05 2.98 32
4 04/09/2024 22:00:31 78.97,-138.30 71.12 04/09/2024 22:00:19 78.98,-138.29 71.12 0.46 12
5 04/09/2024 22:51:10 -79.05, 29.55 108.80 04/09/2024 22:51:14 -79.04, 29.50 108.81 1.39 4
6 04/09/2024 23:41:48 79.14,-162.51 71.30 04/09/2024 23:42:12 79.15,-162.42 71.32 2.15 24
7 04/10/2024 00:32:28 -79.18, 5.10 108.66 04/10/2024 00:33:08 -79.18, 5.11 108.65 0.30 40
8 04/10/2024 01:23:06 79.27, 173.06 71.44 04/10/2024 01:24:07 79.25, 172.94 71.44 2.77 61



Historial Predications of SNOs between METOP-B and NOAA-19
